Regional Weather Roundup
Issued by NWS Upton, NY

Current Version | Previous Version | Text Only | Print | Product List | Glossary On
Versions: 1 2 3 4 5 6 7 8 9 10 11 12 13 14 15 16 17 18 19 20 21 22 23 24 25 26 27 28
000 ASUS41 KOKX 131708 RWROKX REGIONAL WEATHER ROUNDUP NATIONAL WEATHER SERVICE NEW YORK NY 1200 PM EST WED DEC 13 2017 NOTE: "FAIR" INDICATES FEW OR NO CLOUDS BELOW 12,000 FEET WITH NO SIGNIFICANT WEATHER AND/OR OBSTRUCTIONS TO VISIBILITY. NYZ071-072-176-178-NJZ106-104-131800- NEW YORK CITY METRO AREA CITY SKY/WX TMP DP RH WIND PRES REMARKS Central Park CLOUDY 26 7 44 W14G30 29.56F WCI 14 Bronx Bot Gard N/A 27 7 43 NW3 29.55F Bronx Lehman C NOT AVBL LaGuardia APRT PTSUNNY 28 9 44 NW23G41 29.55S WCI 14 Queens College NOT AVBL Kennedy INTL PTSUNNY 28 7 41 W26G37 29.56S WCI 13 Breezy Point N/A N/A N/A N/A W25G39 N/A Brooklyn Coll NOT AVBL Staten Island NOT AVBL Newark/Liberty PTSUNNY 31 5 33 W32G41 29.56F WCI 16 Teterboro CLOUDY 27 8 44 W23G35 29.55F WCI 12 $$ NYZ177-179-078>081-131800- LONG ISLAND NEW YORK CITY SKY/WX TMP DP RH WIND PRES REMARKS Jones Beach N/A N/A N/A N/A NW29G38 N/A Wantagh NOT AVBL Matinecock PT N/A N/A N/A N/A W40G53 N/A Farmingdale CLOUDY 25 7 46 W25G38 29.52F WCI 9 MacArthur/ISP CLOUDY 25 8 48 W17G36 29.50F WCI 12 Shirley MIX PCPN 24 9 52 W25G40 29.50F WCI 8 Mt Sinai Harb N/A N/A N/A N/A W18G30 N/A Westhampton CLOUDY 25 5 42 W30G37 29.49S WCI 8 East Hampton CLOUDY 23 5 45 W24G35 29.45S WCI 7 Southold NOT AVBL Montauk N/A 26 10 50 W17G35 29.43F WCI 13 $$ NYZ052-065-067-131800- HUDSON VALLEY CITY SKY/WX TMP DP RH WIND PRES REMARKS White Plains PTSUNNY 23 9 55 NW26 29.48S WCI 6 Larchmont Harb N/A N/A N/A N/A W26G35 N/A Croton On Huds N/A N/A N/A N/A NW31G40 N/A Somers NOT AVBL Brewster NOT AVBL Newburgh PTSUNNY 23 10 58 W29G46 29.50S WCI 6 Montgomery CLOUDY 23 6 48 NW24G39 29.51R WCI 7 Otisville NOT AVBL Warwick NOT AVBL Suffern NOT AVBL Poughkeepsie CLOUDY 23 5 46 W20G29 29.50S WCI 8 Albany MOSUNNY 19 6 57 NW28G40 29.45S WCI 1 $$ NJZ001-105-106-008-010-013-015-019>022-104-131800- NEW JERSEY CITY SKY/WX TMP DP RH WIND PRES REMARKS Newark/Liberty PTSUNNY 31 5 33 W32G41 29.56F WCI 16 Teterboro CLOUDY 27 8 44 W23G35 29.55F WCI 12 Caldwell PTSUNNY 27 5 39 W16G29 29.55F WCI 15 Somerville MOSUNNY 29 7 39 W14G29 29.58S WCI 18 Linden FAIR 30 5 34 NW28G38 29.57S WCI 16 Perth Amboy N/A N/A N/A N/A W31G45 N/A Sussex CLOUDY 23 7 50 W10G18 29.54S WCI 12 Andover NOT AVBL Trenton MOSUNNY 29 6 38 W21G35 29.63S WCI 16 Millville SUNNY 30 9 41 W23G36 29.71F WCI 17 Atlantic City SUNNY 30 7 37 W22G37 29.67F WCI 17 Wrightstown MOSUNNY 29 6 37 W20G36 29.62S WCI 17 Toms River SUNNY 29 8 41 NW28G38 29.62F WCI 14 Belmar MOSUNNY 29 7 39 W26G36 29.59F WCI 14 $$ PAZ047>061-062-071-131800- EASTERN PENNSYLVANIA CITY SKY/WX TMP DP RH WIND PRES REMARKS Philadelphia MOSUNNY 30 4 33 W16 29.69F WCI 19 Allentown MOSUNNY 27 6 41 W23G37 29.62F WCI 12 Scranton MOSUNNY 24 4 42 NW23G36 29.57F WCI 9 $$ CTZ002-004>006-009-010-012-RIZ004-006-007-MAZ004-011-015-131800- SOUTHERN NEW ENGLAND IN CT CITY SKY/WX TMP DP RH WIND PRES REMARKS Bradley INTL PTSUNNY 21 8 57 W24G35 29.40F WCI 4 Hartford CLOUDY 23 9 55 W16G29 29.43F WCI 10 Danbury PTSUNNY 23 4 44 W18G33 29.46F WCI 9 Wtrbury/Oxford PTSUNNY 20 7 57 W15G24 29.41F WCI 6 Norwalk Harbor N/A N/A N/A N/A W26G35 N/A Bridgeport CLOUDY 26 4 38 W28G40 29.47F WCI 10 Meriden CLOUDY 21 8 57 W16G28 29.45S WCI 7 New Haven MOSUNNY 25 7 46 NW21G37 29.46F WCI 11 Chester FAIR 23 1 39 W16G32 29.40F WCI 10 Groton CLOUDY 25 3 38 W24G33 29.41F WCI 9 Wilimantic CLOUDY 22 8 55 W12G28 29.40S WCI 10 IN RI CITY SKY/WX TMP DP RH WIND PRES REMARKS Providence PTSUNNY 24 9 52 W20G35 29.35F WCI 10 Block Island CLOUDY 24 9 52 W16G30 29.39F WCI 11 Westerly PTSUNNY 26 4 38 W13G25 29.40F WCI 15 IN MA CITY SKY/WX TMP DP RH WIND PRES REMARKS Boston PTSUNNY 24 8 50 W22G41 29.27F WCI 9 Worcester MIX PCPN 18 5 57 W23G36 29.24F WCI 0 Westfield CLOUDY 20 9 62 W17G30 29.38F WCI 5 Provincetown CLOUDY 26 14 60 W26G35 29.26S WCI 10 Nantucket FLURRIES 26 14 60 W23G37 29.31F WCI 11 $$ ANZ330-335-338-340-345-350-353-355-131800- COASTAL MARINE OBSERVATIONS STATION/POSITION TIME SKY/WX TEMP WIND PRES VSBY WAVE AIR SEA DIR/SP/G HT/PER (UTC) (F) (DEG/KT/KT) (MB) (MI) (FT/S) NY HARB ENTRANCE 1550 29 51 280/ 33/ 39 999.5 6/ 5 20 S FIRE ISLAND 1550 29 52 300/ 33/ 39 999.6 12/ 7 GREAT SOUTH BAY 1630 25 45 290/ 23/ 31 N/A HUDSON CANYON 1550 31 55 290/ 33/ 45 1000.1 16/ 9 KINGS POINT 1630 26 43 340/ 22/ 28 1001.3 EXECUTION ROCKS 1645 27 260/ 23/ 37 N/A WESTERN LI SOUND NOT AVBL CENTRAL LI SOUND NOT AVBL ROBBINS REEF 1636 27 300/ 26/ 34 1001.4 $$ >>>>>>>>>>>>>>>>>>>>>>>>>>>> KEY <<<<<<<<<<<<<<<<<<<<<<<<<<< > < > SKY/WX - Sky Condition/Present Weather < > TMP - Temperature in Fahrenheit < > DP - Dew Point in Fahrenheit < > RH - Relative Humidity in Percent < > WIND - Direction (from) and Speed in MPH < > PRES - Mean Sea Level Pressure (inches of Hg) < > WCI - Wind Chill Index < > VSB - VISIBILITY IN MILES < > HX - HEAT INDEX < > TC - TEMPERATURE IN CELSIUS < > VRB - VARIABLE WIND DIRECTION < > < >>>>>>>>>>>>>>>>>>>>>>>>>>>> KEY <<<<<<<<<<<<<<<<<<<<<<<<<<<

USA.gov is the U.S. government's official web portal to all federal, state and local government web resources and services.